JBU6135 KSYR-KJFK

Flight info

Callsign JBU6135
Flight time N/A
Altitude 27000
Route ARRKK PUCKY1
Aircraft A20N/M-SDE2E3FGHIRWXY/LB1

Departure

Time 2026-04-28 14:59
Airport Syracuse Hancock International Airport (KSYR)

Arrival

Time N/A
Airport John F. Kennedy International Airport (KJFK)
Time Latitude Longitude Altitude Speed Heading
2026-04-28 14:03 43.11270 -76.10883 422 ft 0 kts 270°
2026-04-28 14:43 43.11270 -76.10875 365 ft 1 kts 270°
2026-04-28 14:43 43.11270 -76.10867 362 ft 1 kts 270°
2026-04-28 14:43 43.11270 -76.10858 392 ft 1 kts 274°
2026-04-28 14:44 43.11269 -76.10849 374 ft 1 kts 285°
2026-04-28 14:44 43.11268 -76.10840 360 ft 1 kts 294°
2026-04-28 14:44 43.11265 -76.10832 426 ft 1 kts 326°
2026-04-28 14:44 43.11261 -76.10827 423 ft 0 kts 353°
2026-04-28 14:50 43.11267 -76.10829 424 ft 2 kts 353°
2026-04-28 14:50 43.11292 -76.10833 414 ft 5 kts 353°
2026-04-28 14:50 43.11334 -76.10838 417 ft 8 kts 355°
2026-04-28 14:50 43.11403 -76.10844 415 ft 12 kts 356°
2026-04-28 14:51 43.11490 -76.10852 415 ft 13 kts 356°
2026-04-28 14:51 43.11558 -76.10859 414 ft 16 kts 355°
2026-04-28 14:51 43.11603 -76.10864 414 ft 0 kts 355°
2026-04-28 14:51 43.11608 -76.10863 414 ft 3 kts
2026-04-28 14:52 43.11660 -76.10875 411 ft 9 kts 331°
2026-04-28 14:52 43.11693 -76.10917 415 ft 10 kts 314°
2026-04-28 14:52 43.11765 -76.11017 413 ft 12 kts 315°
2026-04-28 14:52 43.11806 -76.11074 413 ft 13 kts 314°
2026-04-28 14:53 43.11873 -76.11169 417 ft 14 kts 314°
2026-04-28 14:53 43.11941 -76.11266 416 ft 13 kts 312°
2026-04-28 14:53 43.11980 -76.11323 424 ft 0 kts 313°
2026-04-28 14:53 43.11987 -76.11333 423 ft 3 kts 314°
2026-04-28 14:54 43.12015 -76.11359 421 ft 7 kts 338°
2026-04-28 14:54 43.12065 -76.11339 411 ft 9 kts 40°
2026-04-28 14:54 43.12098 -76.11264 421 ft 9 kts 86°
2026-04-28 14:54 43.12063 -76.11194 419 ft 9 kts 135°
2026-04-28 14:55 43.12058 -76.11186 420 ft 0 kts 135°
2026-04-28 14:58 43.12013 -76.11124 425 ft 40 kts 134°
2026-04-28 14:58 43.11620 -76.10568 417 ft 117 kts 134°
2026-04-28 14:58 43.11479 -76.10386 419 ft 61 kts 137°
2026-04-28 14:59 43.11018 -76.09722 495 ft 119 kts 135°
2026-04-28 14:59 43.10742 -76.09318 887 ft 108 kts 131°
2026-04-28 14:59 43.10642 -76.09140 1112 ft 103 kts 131°
2026-04-28 14:59 43.10173 -76.08282 1706 ft 119 kts 136°
2026-04-28 15:00 43.09567 -76.07400 2201 ft 134 kts 140°
2026-04-28 15:00 43.08904 -76.06404 2795 ft 149 kts 140°
2026-04-28 15:00 43.08173 -76.05299 3382 ft 164 kts 142°
2026-04-28 15:00 43.07369 -76.04093 3871 ft 178 kts 141°
2026-04-28 15:01 43.06523 -76.02815 4492 ft 188 kts 142°
2026-04-28 15:01 43.05577 -76.01398 4931 ft 215 kts 142°
2026-04-28 15:01 43.04516 -75.99809 5455 ft 237 kts 140°
2026-04-28 15:01 43.03364 -75.98076 6113 ft 253 kts 140°
2026-04-28 15:02 43.02166 -75.96269 6945 ft 260 kts 139°
2026-04-28 15:02 43.00931 -75.94412 7775 ft 267 kts 138°
2026-04-28 15:02 42.99674 -75.92522 8665 ft 272 kts 137°
2026-04-28 15:02 42.98385 -75.90582 9516 ft 279 kts 137°
2026-04-28 15:03 42.97066 -75.88598 10345 ft 284 kts 136°
2026-04-28 15:03 42.95755 -75.86621 11213 ft 285 kts 136°
2026-04-28 15:03 42.94406 -75.84591 11785 ft 291 kts 136°
2026-04-28 15:03 42.93043 -75.82537 12018 ft 291 kts 136°
2026-04-28 15:04 42.91677 -75.80479 12122 ft 301 kts 137°
2026-04-28 15:04 42.90202 -75.78266 12169 ft 324 kts 137°
2026-04-28 15:04 42.88684 -75.75979 12461 ft 324 kts 136°
2026-04-28 15:04 42.87170 -75.73699 12813 ft 326 kts 136°
2026-04-28 15:05 42.85638 -75.71390 13191 ft 328 kts 136°
2026-04-28 15:05 42.84104 -75.69078 13540 ft 329 kts 136°
2026-04-28 15:05 42.82565 -75.66757 13907 ft 330 kts 136°
2026-04-28 15:05 42.81014 -75.64421 14253 ft 334 kts 136°
2026-04-28 15:06 42.79450 -75.62063 14580 ft 337 kts 136°
2026-04-28 15:06 42.77891 -75.59713 14914 ft 341 kts 136°
2026-04-28 15:06 42.76292 -75.57305 15302 ft 344 kts 136°
2026-04-28 15:06 42.74679 -75.54873 15695 ft 348 kts 136°
2026-04-28 15:07 42.73046 -75.52414 16087 ft 352 kts 136°
2026-04-28 15:07 42.71399 -75.49933 16495 ft 356 kts 136°
2026-04-28 15:07 42.69732 -75.47421 16969 ft 360 kts 136°
2026-04-28 15:07 42.68045 -75.44880 17471 ft 364 kts 136°
2026-04-28 15:08 42.66339 -75.42310 17953 ft 368 kts 136°
2026-04-28 15:08 42.64615 -75.39712 18459 ft 372 kts 136°
2026-04-28 15:08 42.62874 -75.37088 18898 ft 375 kts 136°
2026-04-28 15:08 42.61121 -75.34446 19328 ft 377 kts 136°
2026-04-28 15:09 42.59358 -75.31789 19785 ft 381 kts 136°
2026-04-28 15:09 42.57578 -75.29106 20044 ft 384 kts 136°
2026-04-28 15:09 42.55793 -75.26413 20131 ft 383 kts 135°
2026-04-28 15:09 42.54613 -75.24633 20148 ft 384 kts 136°
2026-04-28 15:10 42.52226 -75.21034 20153 ft 383 kts 135°
2026-04-28 15:10 42.50466 -75.18380 20158 ft 383 kts 135°
2026-04-28 15:10 42.48688 -75.15699 20339 ft 383 kts 135°
2026-04-28 15:10 42.46902 -75.13005 20791 ft 386 kts 135°
2026-04-28 15:11 42.45093 -75.10279 21295 ft 391 kts 135°
2026-04-28 15:11 42.43265 -75.07522 21796 ft 394 kts 135°
2026-04-28 15:11 42.41422 -75.04743 22312 ft 399 kts 135°
2026-04-28 15:11 42.39556 -75.01929 22838 ft 403 kts 135°
2026-04-28 15:12 42.37673 -74.99092 23371 ft 407 kts 135°
2026-04-28 15:12 42.35801 -74.96269 23869 ft 411 kts 135°
2026-04-28 15:12 42.33881 -74.93372 24327 ft 414 kts 135°
2026-04-28 15:12 42.31954 -74.90465 24786 ft 417 kts 135°
2026-04-28 15:13 42.30014 -74.87540 25247 ft 419 kts 135°
2026-04-28 15:13 42.28063 -74.84596 25722 ft 421 kts 135°
2026-04-28 15:13 42.26101 -74.81636 26206 ft 423 kts 135°
2026-04-28 15:13 42.24139 -74.78677 26710 ft 424 kts 135°
2026-04-28 15:14 42.22161 -74.75694 27067 ft 429 kts 135°
2026-04-28 15:14 42.20148 -74.72657 27171 ft 436 kts 134°
2026-04-28 15:14 42.18127 -74.69607 27186 ft 436 kts 134°
2026-04-28 15:14 42.16106 -74.66557 27186 ft 436 kts 134°
2026-04-28 15:15 42.14088 -74.63511 27186 ft 436 kts 134°
2026-04-28 15:15 42.12065 -74.60458 27187 ft 437 kts 134°
2026-04-28 15:15 42.10040 -74.57403 27189 ft 437 kts 134°
2026-04-28 15:15 42.08015 -74.54346 27195 ft 437 kts 134°
2026-04-28 15:16 42.05991 -74.51291 27197 ft 438 kts 134°
2026-04-28 15:16 42.03961 -74.48228 27193 ft 437 kts 134°
2026-04-28 15:16 42.01939 -74.45175 27192 ft 437 kts 134°
2026-04-28 15:16 41.99913 -74.42116 27194 ft 438 kts 134°
2026-04-28 15:17 41.97884 -74.39053 27200 ft 439 kts 134°
2026-04-28 15:17 41.95858 -74.35994 27202 ft 439 kts 134°
2026-04-28 15:17 41.93830 -74.32932 27201 ft 439 kts 134°
2026-04-28 15:17 41.91824 -74.29903 27200 ft 439 kts 134°
2026-04-28 15:18 41.89791 -74.26834 27200 ft 439 kts 134°
2026-04-28 15:18 41.87761 -74.23768 27199 ft 439 kts 134°
2026-04-28 15:18 41.85732 -74.20703 27199 ft 440 kts 134°
2026-04-28 15:18 41.83699 -74.17633 27206 ft 440 kts 134°
2026-04-28 15:19 41.81662 -74.14555 27207 ft 440 kts 134°
2026-04-28 15:19 41.79628 -74.11483 27207 ft 441 kts 134°
2026-04-28 15:19 41.77593 -74.08409 27209 ft 441 kts 134°
2026-04-28 15:19 41.75557 -74.05334 27209 ft 441 kts 133°
2026-04-28 15:20 41.73517 -74.02252 27209 ft 442 kts 133°
2026-04-28 15:20 41.71479 -73.99174 27204 ft 442 kts 133°
2026-04-28 15:20 41.69440 -73.96094 27209 ft 442 kts 133°
2026-04-28 15:20 41.67402 -73.93014 27208 ft 442 kts 133°
2026-04-28 15:21 41.65364 -73.89935 27205 ft 442 kts 133°
2026-04-28 15:21 41.63329 -73.86859 27208 ft 442 kts 133°
2026-04-28 15:21 41.61287 -73.83773 27209 ft 442 kts 133°
2026-04-28 15:21 41.59249 -73.80693 27160 ft 441 kts 133°
2026-04-28 15:22 41.57262 -73.77690 26854 ft 432 kts 133°
2026-04-28 15:22 41.55270 -73.74677 26483 ft 422 kts 133°
2026-04-28 15:22 41.53349 -73.71773 26114 ft 413 kts 133°
2026-04-28 15:22 41.51468 -73.68929 25753 ft 404 kts 133°
2026-04-28 15:23 41.49653 -73.66184 25413 ft 395 kts 133°
2026-04-28 15:23 41.47853 -73.63462 25062 ft 387 kts 133°
2026-04-28 15:23 41.46088 -73.60793 24721 ft 380 kts 133°
2026-04-28 15:23 41.44356 -73.58174 24371 ft 375 kts 133°
2026-04-28 15:24 41.42630 -73.55565 24036 ft 377 kts 133°
2026-04-28 15:24 41.40887 -73.52931 23680 ft 380 kts 133°
2026-04-28 15:24 41.39141 -73.50293 23266 ft 379 kts 133°
2026-04-28 15:24 41.37403 -73.47666 22869 ft 377 kts 133°
2026-04-28 15:25 41.35670 -73.45047 22484 ft 376 kts 133°
2026-04-28 15:25 41.33940 -73.42433 22097 ft 376 kts 133°
2026-04-28 15:25 41.32212 -73.39822 21703 ft 375 kts 132°
2026-04-28 15:25 41.30484 -73.37211 21331 ft 376 kts 132°
2026-04-28 15:26 41.28758 -73.34603 20959 ft 375 kts 132°
2026-04-28 15:26 41.27037 -73.32002 20589 ft 375 kts 132°
2026-04-28 15:26 41.25316 -73.29402 20331 ft 374 kts 132°
2026-04-28 15:26 41.23596 -73.26803 20258 ft 376 kts 131°
2026-04-28 15:27 41.21869 -73.24193 20245 ft 377 kts 131°
2026-04-28 15:27 41.20162 -73.21613 20248 ft 376 kts 131°
2026-04-28 15:27 41.18413 -73.18970 20248 ft 376 kts 131°
2026-04-28 15:27 41.16686 -73.16360 20247 ft 377 kts 131°
2026-04-28 15:28 41.14896 -73.13886 20245 ft 376 kts 142°
2026-04-28 15:28 41.12620 -73.12214 20245 ft 375 kts 163°
2026-04-28 15:28 41.10054 -73.11680 20245 ft 373 kts 184°
2026-04-28 15:28 41.07534 -73.12344 20248 ft 370 kts 203°
2026-04-28 15:29 41.05194 -73.13790 20252 ft 371 kts 210°
2026-04-28 15:29 41.02923 -73.15409 20233 ft 371 kts 210°
2026-04-28 15:29 41.00664 -73.17032 19943 ft 367 kts 210°
2026-04-28 15:29 40.98437 -73.18642 19450 ft 362 kts 210°
2026-04-28 15:30 40.96270 -73.20313 18958 ft 358 kts 213°
2026-04-28 15:30 40.94221 -73.22159 18463 ft 353 kts 216°
2026-04-28 15:30 40.92231 -73.24018 17913 ft 348 kts 217°
2026-04-28 15:30 40.90513 -73.26205 17370 ft 341 kts 234°
2026-04-28 15:31 40.89168 -73.28702 16840 ft 336 kts 236°
2026-04-28 15:31 40.87842 -73.31214 16318 ft 331 kts 236°
2026-04-28 15:31 40.86524 -73.33705 15730 ft 329 kts 236°
2026-04-28 15:31 40.85219 -73.36166 15152 ft 325 kts 236°
2026-04-28 15:32 40.83926 -73.38595 14581 ft 321 kts 236°
2026-04-28 15:32 40.83076 -73.40187 14215 ft 319 kts 236°
2026-04-28 15:32 40.81374 -73.43366 13390 ft 315 kts 236°
2026-04-28 15:32 40.80123 -73.45723 12783 ft 312 kts 236°
2026-04-28 15:33 40.78890 -73.48064 12174 ft 309 kts 236°
2026-04-28 15:33 40.77675 -73.50382 11585 ft 306 kts 236°
2026-04-28 15:33 40.76475 -73.52685 10991 ft 303 kts 236°
2026-04-28 15:33 40.75288 -73.54970 10421 ft 300 kts 236°
2026-04-28 15:34 40.74131 -73.57210 9836 ft 298 kts 236°
2026-04-28 15:34 40.73140 -73.59584 9201 ft 296 kts 253°
2026-04-28 15:34 40.72813 -73.62247 8615 ft 293 kts 271°
2026-04-28 15:34 40.73303 -73.64796 8223 ft 286 kts 297°
2026-04-28 15:35 40.74563 -73.66770 7831 ft 280 kts 320°
2026-04-28 15:35 40.77799 -73.69378 7037 ft 270 kts 341°
2026-04-28 15:35 40.79606 -73.69926 6648 ft 265 kts
2026-04-28 15:36 40.81369 -73.69424 6244 ft 258 kts 26°
2026-04-28 15:36 40.82768 -73.68032 5827 ft 250 kts 56°
2026-04-28 15:36 40.83479 -73.66001 5431 ft 241 kts 79°
2026-04-28 15:36 40.83469 -73.63895 5271 ft 223 kts 111°
2026-04-28 15:37 40.82645 -73.62294 5143 ft 213 kts 144°
2026-04-28 15:37 40.81196 -73.61741 4928 ft 239 kts 185°
2026-04-28 15:37 40.79494 -73.62191 5404 ft 272 kts 195°
2026-04-28 15:37 40.78226 -73.62792 5458 ft 304 kts 204°
2026-04-28 15:38 40.75882 -73.65524 5249 ft 372 kts 235°
2026-04-28 15:38 40.74792 -73.68720 5265 ft 406 kts 254°
2026-04-28 15:38 40.74110 -73.72196 6417 ft 374 kts 254°
2026-04-28 15:38 40.73735 -73.75393 6397 ft 319 kts 269°
2026-04-28 15:39 40.73732 -73.78001 6611 ft 257 kts 273°
2026-04-28 15:39 40.74399 -73.80008 6172 ft 244 kts 317°
2026-04-28 15:39 40.75832 -73.81103 5577 ft 239 kts 346°
2026-04-28 15:39 40.77550 -73.81723 5962 ft 276 kts 345°
2026-04-28 15:40 40.79673 -73.82165 5656 ft 334 kts 358°
2026-04-28 15:40 40.82113 -73.82741 5389 ft 382 kts 341°
2026-04-28 15:40 40.84775 -73.83823 5349 ft 411 kts 351°
2026-04-28 15:40 40.86667 -73.84205 6192 ft 410 kts 353°
2026-04-28 15:41 40.90406 -73.84849 6265 ft 402 kts 353°
2026-04-28 15:41 40.92190 -73.85212 6679 ft 369 kts 351°
2026-04-28 15:41 40.95032 -73.85349 9191 ft 251 kts
2026-04-28 15:41 40.96197 -73.85089 8520 ft 270 kts 22°
2026-04-28 15:42 40.97933 -73.83956 7976 ft 279 kts 20°
2026-04-28 15:42 40.99823 -73.83431 7616 ft 278 kts
2026-04-28 15:42 41.01727 -73.83025 7249 ft 277 kts 17°
2026-04-28 15:42 41.03396 -73.81824 6889 ft 274 kts 45°
2026-04-28 15:43 41.04437 -73.79771 6533 ft 269 kts 74°
2026-04-28 15:43 41.04630 -73.77354 6135 ft 263 kts 102°
2026-04-28 15:43 41.04028 -73.75110 5767 ft 260 kts 117°
2026-04-28 15:43 41.03246 -73.72926 5396 ft 260 kts 117°
2026-04-28 15:44 41.02479 -73.70803 5307 ft 248 kts 117°
2026-04-28 15:44 41.01764 -73.68825 5421 ft 227 kts 117°
2026-04-28 15:44 41.01122 -73.67031 5572 ft 206 kts 117°
2026-04-28 15:44 41.00503 -73.65299 5558 ft 210 kts 117°
2026-04-28 15:45 40.99884 -73.63566 5486 ft 207 kts 117°
2026-04-28 15:45 40.99270 -73.61852 5316 ft 205 kts 117°
2026-04-28 15:45 40.98667 -73.60167 5185 ft 202 kts 117°
2026-04-28 15:45 40.98053 -73.58543 5153 ft 193 kts 127°
2026-04-28 15:46 40.96996 -73.57491 5187 ft 195 kts 163°
2026-04-28 15:46 40.95676 -73.57514 5149 ft 198 kts 197°
2026-04-28 15:46 40.94388 -73.58214 4989 ft 202 kts 201°
2026-04-28 15:46 40.93104 -73.58972 4713 ft 203 kts 201°
2026-04-28 15:47 40.91796 -73.59735 4413 ft 206 kts 201°
2026-04-28 15:47 40.90497 -73.60480 4243 ft 198 kts 201°
2026-04-28 15:47 40.89250 -73.61187 4225 ft 197 kts 201°
2026-04-28 15:47 40.88013 -73.61925 4240 ft 197 kts 206°
2026-04-28 15:48 40.86795 -73.62785 4221 ft 196 kts 202°
2026-04-28 15:48 40.85525 -73.63437 4241 ft 197 kts 197°
2026-04-28 15:48 40.84224 -73.64035 4214 ft 196 kts 197°
2026-04-28 15:48 40.82933 -73.64631 4239 ft 198 kts 197°
2026-04-28 15:49 40.81646 -73.65238 4232 ft 194 kts 197°
2026-04-28 15:49 40.80353 -73.65843 4241 ft 197 kts 197°
2026-04-28 15:49 40.79071 -73.66436 4233 ft 193 kts 197°
2026-04-28 15:49 40.77771 -73.67041 4238 ft 202 kts 197°
2026-04-28 15:50 40.76484 -73.67640 4254 ft 196 kts 197°
2026-04-28 15:50 40.75204 -73.68233 4254 ft 193 kts 197°
2026-04-28 15:50 40.73994 -73.68798 4242 ft 176 kts 197°
2026-04-28 15:50 40.72882 -73.69327 4169 ft 170 kts 197°
2026-04-28 15:51 40.71758 -73.69900 3896 ft 176 kts 202°
2026-04-28 15:51 40.70665 -73.70644 3558 ft 177 kts 207°
2026-04-28 15:51 40.69618 -73.71489 3306 ft 174 kts 208°
2026-04-28 15:51 40.68564 -73.72261 2937 ft 176 kts 208°
2026-04-28 15:52 40.67544 -73.72972 2907 ft 154 kts 210°
2026-04-28 15:52 40.66616 -73.73768 2055 ft 173 kts 215°
2026-04-28 15:52 40.65594 -73.74635 1075 ft 182 kts 212°
2026-04-28 15:52 40.64495 -73.75515 195 ft 179 kts 210°
2026-04-28 15:53 40.63515 -73.76272 23 ft 147 kts 212°
2026-04-28 15:53 40.62815 -73.76743 21 ft 54 kts 194°